This is the latest recevied weather packets stored in our database for station/object WX9WTF. If no packets are shown the sender has not sent any weather packets the latest 10 day(s).
| Time | Temp. | Humidity | Pressure | Rain* | Wind** | Luminosity | Snow |
|---|---|---|---|---|---|---|---|
| 1777821903 | 20° C | 54% | 1014.8 hPa | 0 mm | - | 673 W/m² | - |
| 1777821600 | 19.44° C | 55% | 1014.7 hPa | 0 mm | - | 668 W/m² | - |
| 1777821298 | 19.44° C | 56% | 1014.9 hPa | 0 mm | - | 659 W/m² | - |
| 1777820995 | 19.44° C | 53% | 1015.1 hPa | 0 mm | - | 651 W/m² | - |
| 1777820691 | 18.89° C | 54% | 1015.2 hPa | 0 mm | - | 641 W/m² | - |
| 1777820387 | 18.89° C | 55% | 1015.4 hPa | 0 mm | - | 629 W/m² | - |
| 1777820084 | 18.89° C | 53% | 1015.3 hPa | 0 mm | - | 613 W/m² | - |
| 1777819782 | 18.33° C | 53% | 1015.5 hPa | 0 mm | - | 598 W/m² | - |
| 1777819480 | 18.33° C | 54% | 1015.5 hPa | 0 mm | - | 581 W/m² | - |
| 1777819177 | 17.78° C | 54% | 1015.4 hPa | 0 mm | - | 561 W/m² | - |
| 1777818873 | 17.22° C | 56% | 1015.3 hPa | 0 mm | - | 543 W/m² | - |
| 1777818570 | 17.22° C | 59% | 1015.4 hPa | 0 mm | - | 521 W/m² | - |
| 1777818267 | 17.22° C | 53% | 1015.6 hPa | 0 mm | - | 502 W/m² | - |
| 1777817962 | 17.22° C | 55% | 1015.5 hPa | 0 mm | - | 481 W/m² | - |
| 1777817660 | 16.67° C | 55% | 1015.6 hPa | 0 mm | - | 457 W/m² | - |
| 1777817357 | 16.11° C | 55% | 1015.7 hPa | 0 mm | - | 436 W/m² | - |
| 1777817054 | 16.11° C | 55% | 1015.7 hPa | 0 mm | - | 419 W/m² | - |
| 1777816749 | 16.11° C | 57% | 1015.9 hPa | 0 mm | - | 400 W/m² | - |
| 1777816448 | 16.11° C | 56% | 1016.1 hPa | 0 mm | - | 379 W/m² | - |
| 1777816145 | 15.56° C | 57% | 1016.1 hPa | 0 mm | - | 361 W/m² | - |
| 1777815843 | 15.56° C | 57% | 1016.1 hPa | 0 mm | - | 340 W/m² | - |
| 1777815540 | 15.56° C | 56% | 1016.1 hPa | 0 mm | - | 322 W/m² | - |
| 1777815237 | 15° C | 58% | 1016 hPa | 0 mm | - | 306 W/m² | - |
| 1777814933 | 14.44° C | 60% | 1015.9 hPa | 0 mm | - | 287 W/m² | - |
| 1777814630 | 14.44° C | 58% | 1016 hPa | 0 mm | - | 288 W/m² | - |
* Rain latest hour (hover to see other rain measurements)
** Current wind speed in m/s (hover to see current wind gust speed)